[[{"header":{"parameterUnit":"m.s-1","parameterCategory":2,"la1":30.2991,"la2":30.254,"lo1":-89.0895,"lo2":-89.0444,"dy":0.0017,"dx":0.0017,"nx":28,"ny":28,"refTime":"2023-09-04T03:00:00:Z","depth":"0","parameterNumber":2,"parameterNumberName":"U-component_of_CURRENTS"},"data":[0,0,0,0,0,0,0,0,0,0,0,0,0,0,0,0,0,0,0,0,0,0,0,0,0,0,0,0,0,0,0,0,0,0,0,0,0,0,0,0,0,0,0,0,0,0,0,0,0,0,0,0,0,0,0,0,0,0,-0.2483,-0.2484,0,-0.2515,-0.2515,-0.2515,-0.2495,-0.2494,-0.2493,-0.2493,-0.2453,-0.2452,-0.2452,0,0,0,0,0,0,0,0,0,0,0,0,0,-0.2343,-0.2346,-0.2483,-0.2484,-0.2485,-0.2515,-0.2515,-0.2515,-0.2495,-0.2494,-0.2493,-0.2493,-0.2453,-0.2452,-0.2452,0,0,0,0,0,0,0,0,0,0,0,0,0,-0.2389,-0.2347,-0.2483,-0.2481,-0.2481,-0.2515,-0.2515,-0.2515,-0.2495,-0.2494,-0.2493,-0.2492,-0.2453,-0.2452,-0.2451,-0.2465,0,0,-0.2449,-0.2449,0,0,0,0,0,0,0,0,-0.2386,-0.2394,-0.2481,-0.2481,-0.2482,-0.2503,-0.2451,-0.2496,-0.2495,-0.2486,-0.2493,-0.2492,-0.2466,-0.2464,-0.2468,-0.2463,-0.2461,-0.2449,-0.2449,-0.2448,-0.2448,0,0,0,0,0,0,0,-0.2383,-0.2392,-0.2492,-0.2482,-0.2482,-0.2458,-0.2463,-0.2459,-0.2476,-0.2487,-0.2486,-0.2496,-0.2465,-0.2469,-0.2466,-0.2461,-0.2449,-0.2448,-0.2448,-0.2448,-0.2469,-0.247,0,0,0,0,0,0,-0.2392,-0.239,-0.2491,-0.2493,-0.2435,-0.2461,-0.2467,-0.2494,-0.2478,-0.2476,-0.2497,-0.2495,-0.247,-0.2467,-0.2465,-0.2496,-0.2448,-0.2448,-0.2447,-0.2468,-0.2469,-0.247,0,0,0,0,0,0,-0.2389,-0.2401,-0.249,-0.2443,-0.2454,-0.2466,-0.2495,-0.2495,-0.2503,-0.2487,-0.2483,-0.2505,-0.247,-0.2466,-0.2475,-0.2493,-0.2447,-0.2446,-0.2467,-0.2468,-0.2469,-0.2547,0,0,0,0,0,0,-0.2385,-0.2401,-0.2416,-0.2445,-0.2457,-0.2525,-0.2497,-0.2497,-0.2512,-0.251,-0.2493,-0.2488,-0.2469,-0.2477,-0.2475,-0.2491,-0.2446,-0.2465,-0.2467,-0.2469,-0.2544,-0.2551,-0.2558,0,0,0,0,0,-0.238,-0.2415,-0.2417,-0.2429,-0.2481,-0.2527,-0.2531,-0.2532,-0.2513,-0.2531,-0.2517,-0.2489,-0.2486,-0.2478,-0.2475,-0.2492,-0.2464,-0.2467,-0.2469,-0.254,-0.255,-0.2558,0,0,0,0,0,0,-0.2356,-0.2417,-0.242,-0.2469,-0.25,-0.2525,-0.254,-0.254,-0.2543,-0.2534,-0.2508,-0.2504,-0.2512,-0.2496,-0.2487,-0.2503,-0.2468,-0.247,-0.2524,-0.2532,-0.2539,-0.2551,-0.2445,0,0,0,0,0,-0.2362,-0.2404,-0.245,-0.2485,-0.2506,-0.2522,-0.2537,-0.2543,-0.2554,-0.2554,-0.2544,-0.2529,-0.252,-0.2522,-0.2509,-0.253,-0.2492,-0.2536,-0.2544,-0.255,-0.2557,-0.2532,-0.2538,-0.2478,-0.2478,-0.2478,0,0,-0.2354,-0.2398,-0.2415,-0.2483,-0.2502,-0.2547,-0.2528,-0.2563,-0.259,-0.2549,-0.2573,-0.2551,-0.2528,-0.2544,-0.2547,-0.2535,-0.2542,-0.2553,-0.2559,-0.2563,-0.2535,-0.2541,-0.2546,-0.2479,-0.2479,-0.2479,0,0,-0.2372,-0.2409,-0.245,-0.2493,-0.2544,-0.2563,-0.2578,-0.2613,-0.2618,-0.2643,-0.2613,-0.2611,-0.2604,-0.2599,-0.2591,-0.2634,-0.2575,-0.2624,-0.2681,-0.2657,-0.2662,-0.2666,-0.2604,-0.2601,-0.2637,-0.2637,-0.2638,0,-0.236,-0.243,-0.2465,-0.2525,-0.2566,-0.2576,-0.263,-0.2643,-0.2672,-0.2685,-0.2658,-0.2655,-0.263,-0.2655,-0.2664,-0.2651,-0.2613,-0.2651,-0.2667,-0.267,-0.2672,-0.2608,-0.2604,-0.2641,-0.2641,-0.2641,-0.264,0,-0.2403,-0.2472,-0.2505,-0.2587,-0.2632,-0.2684,-0.2722,-0.2749,-0.2748,-0.2756,-0.2773,-0.2745,-0.2741,-0.2735,-0.2709,-0.2726,-0.2682,-0.2671,-0.2645,-0.2683,-0.2612,-0.2607,-0.2647,-0.2646,-0.2645,-0.2644,0,0,-0.2352,-0.2507,-0.2517,-0.2585,-0.2677,-0.2722,-0.2777,-0.2835,-0.2858,-0.2866,-0.2892,-0.288,-0.2853,-0.2842,-0.2813,-0.28,-0.2769,-0.2749,-0.2746,-0.2687,-0.2685,-0.2614,-0.2601,-0.2761,-0.2761,-0.2761,-0.262,0,-0.2377,-0.2512,-0.2574,-0.269,-0.2771,-0.2821,-0.2869,-0.2917,-0.2928,-0.2949,-0.2932,-0.2926,-0.2897,-0.288,-0.287,-0.2782,-0.2762,-0.2806,-0.2656,-0.2651,-0.2585,-0.2596,-0.2509,-0.2374,-0.2615,-0.2614,-0.2613,0,-0.238,-0.2499,-0.2618,-0.2781,-0.2812,-0.2862,-0.2951,-0.2994,-0.3027,-0.3027,-0.3036,-0.3006,-0.2984,-0.2945,-0.2846,-0.2872,-0.279,-0.2729,-0.2721,-0.2628,-0.2573,-0.2379,-0.2354,-0.2343,-0.2604,-0.2605,-0.2606,0,-0.2336,-0.2515,-0.2617,-0.2674,-0.2844,-0.289,-0.2953,-0.3011,-0.3019,-0.3061,-0.3029,-0.3047,-0.2967,-0.2932,-0.2792,-0.2816,-0.2659,-0.2672,-0.254,-0.2531,-0.2414,-0.2397,-0.2363,-0.2617,-0.2617,-0.2618,-0.2618,0,-0.2352,-0.2436,-0.2603,-0.2676,-0.2765,-0.2884,-0.2935,-0.2992,-0.3023,-0.2985,-0.3042,-0.2978,-0.2952,-0.2855,-0.2797,-0.2625,-0.2654,-0.2543,-0.2499,-0.2436,-0.2423,-0.2372,-0.2401,-0.2612,-0.2614,-0.2615,-0.2615,0,-0.2289,-0.2404,-0.2522,-0.2705,-0.2746,-0.28,-0.2891,-0.289,-0.2951,-0.2892,-0.2886,-0.2871,-0.2756,-0.2719,-0.2604,-0.2556,-0.2413,-0.2397,-0.2307,-0.2257,-0.2162,-0.2198,-0.2094,-0.2039,-0.2251,-0.2248,-0.2246,0,-0.2272,-0.2325,-0.2489,-0.2504,-0.2579,-0.2672,-0.268,-0.2813,-0.2777,-0.2788,-0.27,-0.2644,-0.2546,-0.2393,-0.2336,-0.2245,-0.2259,-0.2106,-0.2162,-0.2142,-0.2149,-0.2172,-0.2137,-0.2017,-0.2013,-0.201,-0.2008,0,-0.2208,-0.2231,-0.2304,-0.2354,-0.238,-0.243,-0.2459,-0.2446,-0.2523,-0.2494,-0.2406,-0.2375,-0.2267,-0.2155,-0.2076,-0.202,-0.2077,-0.2039,-0.2045,-0.1992,-0.1986,-0.1915,-0.2108,-0.198,-0.1983,-0.1985,-0.1987,-0.1988,-0.2068,-0.2071,-0.2108,-0.2131,-0.2153,-0.2129,-0.2114,-0.213,-0.21,-0.2036,-0.2098,-0.203,-0.2025,-0.1924,-0.1871,-0.1783,-0.1844,-0.1751,-0.1797,-0.1822,-0.1782,-0.1905,-0.1725,-0.1726,-0.1727,-0.1728,-0.1729,0,-0.1884,-0.1876,-0.1872,-0.1884,-0.1817,-0.1918,-0.1887,-0.1838,-0.1755,-0.1773,-0.1735,-0.1743,-0.1674,-0.1699,-0.1648,-0.1578,-0.1558,-0.1545,-0.1575,-0.1551,-0.1661,-0.1667,-0.1433,-0.1433,-0.1433,-0.1433,-0.1433,-0.1433,-0.177,-0.1682,-0.1688,-0.1528,-0.1529,-0.1424,-0.1388,-0.136,-0.136,-0.1325,-0.1361,-0.144,-0.1509,-0.1649,-0.1578,-0.1504,-0.1488,-0.142,-0.1455,-0.157,-0.1595,-0.1618,-0.163,-0.1392,-0.1392,-0.1282,-0.1282,-0.1281]},{"header":{"parameterUnit":"m.s-1","parameterCategory":2,"la1":30.2991,"la2":30.254,"lo1":-89.0895,"lo2":-89.0444,"dy":0.0017,"dx":0.0017,"nx":28,"ny":28,"refTime":"2023-09-04T03:00:00:Z","depth":"0","parameterNumber":3,"parameterNumberName":"V-component_of_CURRENTS"},"data":[0,0,0,0,0,0,0,0,0,0,0,0,0,0,0,0,0,0,0,0,0,0,0,0,0,0,0,0,0,0,0,0,0,0,0,0,0,0,0,0,0,0,0,0,0,0,0,0,0,0,0,0,0,0,0,0,0,0,0.0116,0.0117,0,0.0219,0.022,0.0222,0.0295,0.0296,0.0296,0.0297,0.0428,0.0431,0.0434,0,0,0,0,0,0,0,0,0,0,0,0,0,0.0046,0.0046,0.0115,0.0117,0.0118,0.0219,0.022,0.0222,0.0295,0.0296,0.0296,0.0297,0.0427,0.0431,0.0434,0,0,0,0,0,0,0,0,0,0,0,0,0,0.0106,0.0046,0.0115,0.0166,0.0172,0.0219,0.022,0.0222,0.0295,0.0296,0.0296,0.0297,0.0426,0.043,0.0435,0.0447,0,0,0.0449,0.0451,0,0,0,0,0,0,0,0,0.0102,0.0108,0.0157,0.0163,0.0169,0.0244,0.0244,0.0299,0.0295,0.0249,0.0297,0.0298,0.0368,0.0377,0.0396,0.0453,0.0459,0.0449,0.0452,0.0454,0.0455,0,0,0,0,0,0,0,0.0098,0.0105,0.0157,0.0159,0.0166,0.0206,0.0215,0.0255,0.0304,0.0253,0.0258,0.0268,0.0372,0.0391,0.04,0.0461,0.0449,0.0453,0.0456,0.0458,0.0582,0.0583,0,0,0,0,0,0,0.0079,0.01,0.0154,0.016,0.0136,0.0206,0.0216,0.022,0.0303,0.0316,0.0268,0.0271,0.0383,0.0394,0.0405,0.045,0.0454,0.0458,0.0461,0.0582,0.0582,0.0583,0,0,0,0,0,0,0.0077,0.0083,0.015,0.0133,0.0144,0.0206,0.021,0.0222,0.0243,0.0314,0.0328,0.0277,0.0384,0.0398,0.0446,0.0455,0.046,0.0464,0.0581,0.0582,0.0583,0.0525,0,0,0,0,0,0,0.0075,0.0081,0.0073,0.0131,0.0144,0.0173,0.021,0.0223,0.0247,0.0253,0.0326,0.0339,0.0386,0.0439,0.0451,0.0461,0.0468,0.058,0.0581,0.0582,0.0526,0.0524,0.0522,0,0,0,0,0,0.0072,0.0056,0.0072,0.0078,0.0132,0.0172,0.0182,0.023,0.0247,0.0253,0.0307,0.0337,0.0455,0.0443,0.0457,0.0469,0.058,0.0581,0.0582,0.0527,0.0524,0.0522,0,0,0,0,0,0,0.0015,0.0063,0.0082,0.008,0.012,0.0184,0.0189,0.0222,0.0269,0.0273,0.0341,0.0358,0.0403,0.0443,0.0428,0.0509,0.0524,0.0528,0.0477,0.0475,0.0473,0.0449,0.0471,0,0,0,0,0,-0.0002,0.0002,0.0057,0.0053,0.0069,0.0126,0.0146,0.018,0.023,0.0251,0.0305,0.0365,0.0419,0.0451,0.0499,0.0539,0.0554,0.0559,0.0556,0.0554,0.0545,0.0577,0.0576,0.0587,0.0587,0.0587,0,0,-0.0028,0.0001,0.0,0.0042,0.0075,0.0094,0.014,0.0164,0.0188,0.0257,0.0299,0.0353,0.0426,0.0476,0.05,0.0511,0.0556,0.0556,0.0553,0.0545,0.0578,0.0577,0.0575,0.0588,0.0588,0.0588,0,0,-0.0074,-0.0051,-0.0061,-0.0029,0.0017,0.006,0.0063,0.0125,0.016,0.0206,0.0265,0.0324,0.04,0.0462,0.0502,0.0516,0.0539,0.0533,0.0508,0.0539,0.0538,0.0537,0.0535,0.0534,0.0537,0.0537,0.0537,0,-0.0107,-0.0112,-0.0058,-0.0052,-0.0035,0.0039,0.0037,0.0087,0.016,0.0187,0.021,0.0334,0.0397,0.0468,0.048,0.0511,0.0515,0.0509,0.0533,0.0533,0.0533,0.0532,0.0532,0.0535,0.0535,0.0535,0.0535,0,-0.0147,-0.0155,-0.0159,-0.0124,-0.0092,-0.0086,-0.0009,0.0029,0.008,0.0133,0.0204,0.0294,0.0367,0.0405,0.045,0.0491,0.0487,0.0519,0.0532,0.0528,0.0527,0.0528,0.0531,0.0532,0.0533,0.0533,0,0,-0.0222,-0.0196,-0.02,-0.0205,-0.0134,-0.0116,-0.0066,-0.0005,0.0019,0.0105,0.0139,0.0256,0.0301,0.0349,0.0418,0.0459,0.0467,0.0482,0.0485,0.0464,0.0501,0.0551,0.0557,0.0495,0.0496,0.0496,0.0493,0,-0.0277,-0.0305,-0.0258,-0.0276,-0.0287,-0.0197,-0.0158,-0.0085,-0.0013,0.0041,0.0151,0.0208,0.0282,0.0312,0.0367,0.0448,0.047,0.0463,0.0523,0.0524,0.0556,0.0561,0.0603,0.0609,0.0494,0.0494,0.0494,0,-0.0334,-0.0347,-0.0383,-0.0366,-0.0359,-0.0339,-0.0269,-0.0225,-0.0112,-0.0058,0.0029,0.011,0.0206,0.0255,0.0378,0.0364,0.0417,0.0475,0.0476,0.0544,0.0577,0.0601,0.0616,0.0757,0.0496,0.0496,0.0496,0,-0.0429,-0.0436,-0.0474,-0.0467,-0.0422,-0.0407,-0.0367,-0.0261,-0.0226,-0.0125,-0.0095,0.0031,0.0089,0.0187,0.0333,0.0341,0.0446,0.0475,0.0561,0.0563,0.0624,0.0632,0.0772,0.0527,0.0527,0.0527,0.0527,0,-0.0518,-0.0548,-0.0525,-0.055,-0.0576,-0.05,-0.0492,-0.0427,-0.0338,-0.03,-0.0163,-0.0108,0.0073,0.0175,0.029,0.0436,0.0413,0.055,0.0574,0.0605,0.0611,0.0758,0.0814,0.0527,0.0527,0.0527,0.0527,0,-0.0624,-0.0611,-0.0658,-0.0637,-0.0628,-0.0645,-0.0584,-0.0564,-0.0474,-0.042,-0.0394,-0.0224,-0.0072,0.0102,0.0267,0.0382,0.0603,0.0559,0.0572,0.06,0.0826,0.0876,0.1002,0.1088,0.0648,0.065,0.0651,0,-0.0682,-0.0721,-0.0737,-0.0755,-0.0749,-0.0748,-0.073,-0.0645,-0.0608,-0.0479,-0.0456,-0.0302,-0.0154,0.0111,0.0339,0.054,0.0648,0.0675,0.0721,0.0847,0.092,0.0942,0.1006,0.0761,0.0762,0.0764,0.0765,0,-0.0789,-0.0792,-0.0824,-0.0861,-0.0867,-0.0872,-0.0836,-0.0826,-0.0706,-0.0642,-0.0514,-0.0393,-0.0104,0.0191,0.0462,0.0581,0.0797,0.0714,0.0854,0.1029,0.1053,0.1144,0.0728,0.0779,0.0778,0.0777,0.0776,0.0776,-0.0849,-0.0898,-0.092,-0.095,-0.0962,-0.0952,-0.0938,-0.0876,-0.0815,-0.0656,-0.0556,-0.0328,0.0088,0.0507,0.0649,0.097,0.0922,0.1066,0.1112,0.1118,0.1231,0.0834,0.0919,0.0919,0.0918,0.0918,0.0917,0,-0.0907,-0.0943,-0.0988,-0.101,-0.1019,-0.1005,-0.0964,-0.091,-0.0818,-0.0648,-0.0488,-0.0018,0.039,0.0756,0.1208,0.137,0.1402,0.1437,0.1489,0.1535,0.1196,0.1236,0.1384,0.1384,0.1384,0.1384,0.1384,0.1383,-0.0931,-0.0991,-0.1007,-0.1031,-0.1036,-0.1014,-0.0983,-0.0893,-0.0756,-0.0449,-0.0168,0.0064,0.0576,0.1316,0.1726,0.1746,0.1892,0.185,0.1932,0.1716,0.1685,0.1655,0.1709,0.1954,0.1955,0.2267,0.227,0.2272]}],[{"header":{"parameterUnit":"m.s-1","parameterCategory":2,"la1":30.2991,"la2":30.254,"lo1":-89.0895,"lo2":-89.0444,"dy":0.0017,"dx":0.0017,"nx":28,"ny":28,"refTime":"2023-09-04T03:00:00:Z","depth":"2","parameterNumber":2,"parameterNumberName":"U-component_of_CURRENTS"},"data":[0,0,0,0,0,0,0,0,0,0,0,0,0,0,0,0,0,0,0,0,0,0,0,0,0,0,0,0,0,0,0,0,0,0,0,0,0,0,0,0,0,0,0,0,0,0,0,0,0,0,0,0,0,0,0,0,0,0,-0.227,-0.227,0,-0.2287,-0.2287,-0.2287,-0.228,-0.228,-0.228,-0.2279,-0.2243,-0.2242,-0.2242,0,0,0,0,0,0,0,0,0,0,0,0,0,-0.2048,-0.2053,-0.227,-0.227,-0.227,-0.2287,-0.2287,-0.2287,-0.228,-0.228,-0.228,-0.2279,-0.2243,-0.2242,-0.2242,0,0,0,0,0,0,0,0,0,0,0,0,0,-0.2112,-0.2055,-0.227,-0.2269,-0.2269,-0.2287,-0.2287,-0.2287,-0.2281,-0.228,-0.228,-0.2279,-0.2244,-0.2243,-0.2242,-0.2246,0,0,-0.2239,-0.2238,0,0,0,0,0,0,0,0,-0.2109,-0.2121,-0.2269,-0.2269,-0.227,-0.2281,-0.2195,-0.2271,-0.2281,-0.2276,-0.2279,-0.2279,-0.2252,-0.225,-0.2254,-0.2244,-0.2243,-0.2239,-0.2238,-0.2238,-0.2237,0,0,0,0,0,0,0,-0.2105,-0.2119,-0.2276,-0.2269,-0.227,-0.2205,-0.2216,-0.2209,-0.2265,-0.2276,-0.2276,-0.2279,-0.2251,-0.2255,-0.2253,-0.2242,-0.2239,-0.2238,-0.2237,-0.2237,-0.2269,-0.227,0,0,0,0,0,0,-0.2115,-0.2117,-0.2275,-0.2276,-0.2187,-0.2211,-0.2222,-0.2278,-0.2266,-0.2265,-0.2279,-0.2278,-0.2257,-0.2254,-0.2252,-0.2285,-0.2238,-0.2237,-0.2236,-0.2267,-0.2269,-0.2271,0,0,0,0,0,0,-0.2112,-0.2132,-0.2275,-0.2193,-0.2207,-0.2217,-0.2278,-0.2278,-0.2296,-0.2269,-0.2266,-0.2298,-0.2257,-0.2253,-0.2264,-0.2282,-0.2236,-0.2235,-0.2266,-0.2268,-0.227,-0.2332,0,0,0,0,0,0,-0.2106,-0.2132,-0.2172,-0.2196,-0.2212,-0.2303,-0.2278,-0.2279,-0.2298,-0.2298,-0.2284,-0.228,-0.2256,-0.2265,-0.2263,-0.228,-0.2235,-0.2264,-0.2267,-0.2269,-0.2328,-0.2336,-0.2343,0,0,0,0,0,-0.2099,-0.2166,-0.2176,-0.2194,-0.2272,-0.2305,-0.2307,-0.2308,-0.23,-0.232,-0.2309,-0.2281,-0.228,-0.2266,-0.2262,-0.228,-0.2262,-0.2266,-0.2269,-0.2325,-0.2334,-0.2342,0,0,0,0,0,0,-0.2074,-0.2172,-0.2183,-0.2273,-0.2292,-0.2304,-0.2322,-0.2322,-0.233,-0.2328,-0.2299,-0.2295,-0.2302,-0.2292,-0.2277,-0.2299,-0.2267,-0.227,-0.2311,-0.2319,-0.2327,-0.2323,-0.2234,0,0,0,0,0,-0.2094,-0.2182,-0.2227,-0.2291,-0.2309,-0.2317,-0.2329,-0.2333,-0.2341,-0.2346,-0.2334,-0.2324,-0.2312,-0.2318,-0.2301,-0.2325,-0.229,-0.2335,-0.2342,-0.2348,-0.2344,-0.2355,-0.2362,-0.2281,-0.2281,-0.2281,0,0,-0.2086,-0.2161,-0.2198,-0.2292,-0.2306,-0.2346,-0.2325,-0.2357,-0.2377,-0.2339,-0.2364,-0.2341,-0.232,-0.2333,-0.2338,-0.2332,-0.2342,-0.2352,-0.2358,-0.235,-0.2359,-0.2367,-0.2373,-0.2283,-0.2283,-0.2283,0,0,-0.2109,-0.2196,-0.2261,-0.2305,-0.2355,-0.2371,-0.2387,-0.2412,-0.2414,-0.2439,-0.2404,-0.2398,-0.2402,-0.2383,-0.2374,-0.2417,-0.2369,-0.2421,-0.2468,-0.2479,-0.2486,-0.2491,-0.2407,-0.2404,-0.244,-0.244,-0.244,0,-0.2104,-0.2199,-0.227,-0.234,-0.2374,-0.239,-0.2432,-0.2446,-0.2464,-0.2466,-0.2457,-0.2455,-0.2421,-0.2435,-0.2436,-0.2431,-0.2406,-0.2435,-0.2488,-0.2493,-0.2498,-0.241,-0.2407,-0.2444,-0.2443,-0.2443,-0.2442,0,-0.2141,-0.2237,-0.2277,-0.2389,-0.2435,-0.2476,-0.2513,-0.2532,-0.2537,-0.2546,-0.256,-0.2531,-0.253,-0.2521,-0.2484,-0.2504,-0.2461,-0.2483,-0.2463,-0.2509,-0.2414,-0.2409,-0.2448,-0.2447,-0.2446,-0.2445,0,0,-0.2102,-0.2273,-0.2289,-0.2348,-0.2467,-0.25,-0.2552,-0.2589,-0.2604,-0.2632,-0.2658,-0.263,-0.262,-0.2608,-0.2577,-0.258,-0.2549,-0.2549,-0.2548,-0.2458,-0.2513,-0.2444,-0.2431,-0.2601,-0.2602,-0.2603,-0.2414,0,-0.2105,-0.2236,-0.2322,-0.2423,-0.249,-0.255,-0.2596,-0.2638,-0.2657,-0.2688,-0.2686,-0.2694,-0.2658,-0.2649,-0.2656,-0.2567,-0.2548,-0.2593,-0.2487,-0.2482,-0.2412,-0.2429,-0.2282,-0.2102,-0.2409,-0.2408,-0.2407,0,-0.2097,-0.2206,-0.231,-0.2457,-0.2485,-0.2541,-0.261,-0.2656,-0.2712,-0.272,-0.2761,-0.2765,-0.2749,-0.2733,-0.2641,-0.2678,-0.2595,-0.2538,-0.2531,-0.2445,-0.2407,-0.2117,-0.2081,-0.2399,-0.2399,-0.24,-0.2401,0,-0.2025,-0.2187,-0.2271,-0.2328,-0.2492,-0.2525,-0.2587,-0.2659,-0.2674,-0.2746,-0.2737,-0.2788,-0.2733,-0.2728,-0.2591,-0.2625,-0.248,-0.2515,-0.2371,-0.2361,-0.2201,-0.2177,-0.2468,-0.2469,-0.2469,-0.247,-0.247,0,-0.2023,-0.209,-0.2238,-0.2304,-0.2363,-0.2496,-0.2547,-0.2594,-0.2664,-0.2656,-0.2744,-0.2709,-0.273,-0.2657,-0.2605,-0.2441,-0.2486,-0.2359,-0.2328,-0.2212,-0.2193,-0.2441,-0.244,-0.2462,-0.2464,-0.2465,-0.2467,0,-0.1959,-0.2067,-0.2162,-0.2315,-0.2348,-0.2394,-0.2504,-0.251,-0.2585,-0.2573,-0.2588,-0.2602,-0.2507,-0.2496,-0.2408,-0.2368,-0.2288,-0.2219,-0.2034,-0.1987,-0.215,-0.2155,-0.2056,-0.2053,-0.205,-0.2047,-0.2045,0,-0.1945,-0.1991,-0.2128,-0.2145,-0.2217,-0.2299,-0.2319,-0.2447,-0.2435,-0.247,-0.2415,-0.2376,-0.2303,-0.2168,-0.2128,-0.2042,-0.2126,-0.184,-0.1907,-0.2137,-0.2117,-0.2126,-0.2135,-0.1674,-0.1669,-0.1665,-0.1661,0,-0.1884,-0.1917,-0.1974,-0.2022,-0.2054,-0.2099,-0.2136,-0.2133,-0.2228,-0.2211,-0.2147,-0.2131,-0.2026,-0.1897,-0.1815,-0.1762,-0.1874,-0.1755,-0.204,-0.1834,-0.1772,-0.1754,-0.1775,-0.1625,-0.1629,-0.1631,-0.1633,-0.1635,-0.1768,-0.1765,-0.1804,-0.1834,-0.1864,-0.1851,-0.184,-0.1864,-0.1854,-0.1808,-0.1866,-0.178,-0.1782,-0.1603,-0.1523,-0.1475,-0.1608,-0.1554,-0.1568,-0.1586,-0.1609,-0.1551,-0.1358,-0.136,-0.1362,-0.1363,-0.1364,0,-0.1597,-0.1596,-0.1601,-0.1623,-0.1583,-0.1672,-0.1655,-0.1613,-0.1549,-0.155,-0.1516,-0.1365,-0.1294,-0.1309,-0.1186,-0.1176,-0.1188,-0.1128,-0.1148,-0.1184,-0.1216,-0.1223,-0.0867,-0.0865,-0.0864,-0.0863,0,0,-0.15,-0.1429,-0.1439,-0.1326,-0.1339,-0.1254,-0.1226,-0.1195,-0.1179,-0.1107,-0.1082,-0.1187,-0.1244,-0.1041,-0.101,-0.0913,-0.1035,-0.0869,-0.1265,-0.1321,-0.1351,-0.1454,-0.1505,0,0,0,0,0]},{"header":{"parameterUnit":"m.s-1","parameterCategory":2,"la1":30.2991,"la2":30.254,"lo1":-89.0895,"lo2":-89.0444,"dy":0.0017,"dx":0.0017,"nx":28,"ny":28,"refTime":"2023-09-04T03:00:00:Z","depth":"2","parameterNumber":3,"parameterNumberName":"V-component_of_CURRENTS"},"data":[0,0,0,0,0,0,0,0,0,0,0,0,0,0,0,0,0,0,0,0,0,0,0,0,0,0,0,0,0,0,0,0,0,0,0,0,0,0,0,0,0,0,0,0,0,0,0,0,0,0,0,0,0,0,0,0,0,0,-0.0041,-0.0041,0,0.0026,0.0027,0.0029,0.0101,0.0101,0.0102,0.0102,0.021,0.0212,0.0214,0,0,0,0,0,0,0,0,0,0,0,0,0,-0.0086,-0.0085,-0.0041,-0.0041,-0.0041,0.0026,0.0028,0.0029,0.01,0.0101,0.0102,0.0103,0.0209,0.0212,0.0214,0,0,0,0,0,0,0,0,0,0,0,0,0,-0.0043,-0.0085,-0.0042,-0.0,0.0004,0.0026,0.0028,0.0029,0.01,0.0101,0.0102,0.0103,0.0208,0.0211,0.0215,0.0219,0,0,0.0225,0.0227,0,0,0,0,0,0,0,0,-0.0045,-0.004,-0.0007,-0.0003,0.0001,0.0052,0.0051,0.0093,0.01,0.0069,0.0102,0.0103,0.0157,0.0165,0.0181,0.0224,0.0228,0.0226,0.0228,0.0229,0.023,0,0,0,0,0,0,0,-0.0048,-0.0043,-0.001,-0.0007,-0.0002,0.0022,0.003,0.006,0.0111,0.0071,0.0076,0.0075,0.016,0.0178,0.0185,0.023,0.0226,0.0229,0.0231,0.0232,0.0358,0.0359,0,0,0,0,0,0,-0.0068,-0.0046,-0.0012,-0.0008,-0.0025,0.0022,0.0031,0.0039,0.011,0.012,0.0075,0.0078,0.0172,0.018,0.0189,0.0234,0.0229,0.0233,0.0235,0.0357,0.0358,0.036,0,0,0,0,0,0,-0.0069,-0.0065,-0.0015,-0.003,-0.0022,0.0021,0.003,0.0039,0.0069,0.0111,0.0124,0.0095,0.0173,0.0184,0.0221,0.0237,0.0234,0.0237,0.0355,0.0357,0.0359,0.0301,0,0,0,0,0,0,-0.0071,-0.0066,-0.0065,-0.0031,-0.0022,-0.0002,0.0029,0.004,0.0064,0.0071,0.0133,0.0143,0.0174,0.0215,0.0224,0.0242,0.024,0.0354,0.0356,0.0358,0.0302,0.0301,0.0301,0,0,0,0,0,-0.0072,-0.0079,-0.0065,-0.0062,-0.0023,-0.0003,0.0005,0.0041,0.0064,0.0073,0.0116,0.0142,0.0238,0.0218,0.0229,0.0248,0.0353,0.0355,0.0358,0.0302,0.0301,0.0301,0,0,0,0,0,0,-0.0104,-0.0071,-0.0056,-0.0054,-0.0031,0.0008,0.0012,0.0042,0.0084,0.0092,0.0143,0.0156,0.0194,0.0233,0.021,0.0296,0.0306,0.0311,0.026,0.026,0.0259,0.0231,0.0243,0,0,0,0,0,-0.0112,-0.0103,-0.0072,-0.0072,-0.0064,-0.0023,-0.001,0.0017,0.0053,0.0074,0.0117,0.017,0.0213,0.0243,0.028,0.032,0.0339,0.0348,0.0347,0.0346,0.0334,0.0391,0.0393,0.0369,0.0369,0.0369,0,0,-0.0133,-0.0109,-0.0109,-0.0078,-0.0058,-0.0047,-0.0011,0.0005,0.0025,0.0077,0.0116,0.0158,0.022,0.0262,0.0287,0.0299,0.0359,0.035,0.0348,0.0336,0.0394,0.0396,0.0398,0.0371,0.0371,0.037,0,0,-0.0171,-0.0142,-0.015,-0.0129,-0.0101,-0.0068,-0.0062,-0.0019,0.0012,0.0051,0.0094,0.0142,0.0215,0.0257,0.0291,0.0312,0.0343,0.034,0.0324,0.038,0.0381,0.0383,0.0379,0.0381,0.0353,0.0353,0.0353,0,-0.0195,-0.02,-0.0152,-0.015,-0.0143,-0.0078,-0.0087,-0.0042,0.0012,0.0031,0.006,0.0168,0.0213,0.0269,0.0278,0.0308,0.0327,0.0314,0.0375,0.0378,0.0381,0.0377,0.0379,0.035,0.0351,0.0351,0.0351,0,-0.0235,-0.024,-0.0245,-0.0214,-0.019,-0.0191,-0.0129,-0.0095,-0.0043,0.0003,0.0065,0.0135,0.0201,0.0235,0.0261,0.0311,0.031,0.0353,0.0366,0.0379,0.0374,0.0378,0.0347,0.0348,0.0349,0.0349,0,0,-0.0294,-0.0279,-0.0283,-0.0291,-0.0229,-0.022,-0.0177,-0.0131,-0.0106,-0.0023,0.0014,0.0102,0.0148,0.0189,0.0243,0.0297,0.0319,0.0329,0.0334,0.0302,0.04,0.0437,0.0444,0.0378,0.0379,0.038,0.0377,0,-0.0348,-0.0379,-0.0342,-0.0363,-0.0377,-0.0302,-0.0269,-0.0207,-0.0137,-0.0078,0.0022,0.0078,0.0134,0.0164,0.0229,0.03,0.0333,0.0313,0.0412,0.0413,0.0428,0.0452,0.043,0.043,0.0381,0.0381,0.0382,0,-0.0402,-0.0417,-0.046,-0.0452,-0.0449,-0.0433,-0.0374,-0.0336,-0.0224,-0.0171,-0.0079,0.0004,0.0093,0.0144,0.027,0.0258,0.0312,0.0368,0.0371,0.0428,0.0459,0.0419,0.0439,0.0388,0.0388,0.0387,0.0387,0,-0.0482,-0.05,-0.0542,-0.0539,-0.0507,-0.0502,-0.0466,-0.0369,-0.0337,-0.0228,-0.0188,-0.0058,0.0005,0.0118,0.0248,0.0258,0.038,0.0413,0.0484,0.0485,0.0496,0.0497,0.0482,0.0482,0.0482,0.0482,0.0482,0,-0.0563,-0.0596,-0.0587,-0.0614,-0.0643,-0.0579,-0.0573,-0.0517,-0.0426,-0.0377,-0.0245,-0.0177,0.0006,0.0115,0.0225,0.0369,0.0365,0.0472,0.0501,0.0474,0.0474,0.0473,0.0472,0.0482,0.0482,0.0482,0.0482,0,-0.0653,-0.0651,-0.07,-0.0694,-0.0688,-0.0704,-0.0651,-0.0629,-0.0543,-0.0474,-0.0442,-0.0274,-0.012,0.0047,0.0223,0.033,0.0465,0.0505,0.0433,0.0456,0.0523,0.0519,0.0579,0.0581,0.0582,0.0583,0.0584,0,-0.0706,-0.0744,-0.0769,-0.0787,-0.0789,-0.079,-0.0773,-0.0697,-0.0655,-0.052,-0.0484,-0.0331,-0.0183,0.0076,0.0285,0.0473,0.0479,0.0541,0.0575,0.0518,0.054,0.0534,0.0529,0.054,0.0541,0.0541,0.0542,0,-0.0801,-0.0805,-0.0839,-0.0877,-0.0886,-0.0888,-0.0853,-0.0839,-0.0722,-0.0654,-0.0518,-0.0397,-0.013,0.0114,0.0356,0.0463,0.0522,0.0558,0.0536,0.0535,0.0487,0.0507,0.0502,0.0546,0.0545,0.0545,0.0545,0.0545,-0.0851,-0.0894,-0.0919,-0.0951,-0.0962,-0.0946,-0.0932,-0.0868,-0.0802,-0.0646,-0.0543,-0.0339,-0.0114,0.026,0.0431,0.0579,0.058,0.0619,0.0615,0.0611,0.0624,0.0584,0.0657,0.0657,0.0657,0.0658,0.0658,0,-0.0899,-0.0931,-0.0974,-0.0997,-0.1004,-0.0994,-0.0947,-0.0893,-0.0799,-0.0643,-0.0489,-0.0234,0.0037,0.0254,0.0507,0.0662,0.0639,0.0668,0.0616,0.0611,0.0607,0.0618,0.065,0.0651,0.0651,0.0651,0,0,-0.0919,-0.0973,-0.0989,-0.101,-0.1017,-0.0995,-0.0962,-0.0871,-0.0747,-0.0578,-0.0422,-0.0203,0.0059,0.024,0.0426,0.055,0.0536,0.0549,0.0539,0.0451,0.0446,0.0563,0.0574,0,0,0,0,0]}],[{"header":{"parameterUnit":"m.s-1","parameterCategory":2,"la1":30.2991,"la2":30.254,"lo1":-89.0895,"lo2":-89.0444,"dy":0.0017,"dx":0.0017,"nx":28,"ny":28,"refTime":"2023-09-04T03:00:00:Z","depth":"4","parameterNumber":2,"parameterNumberName":"U-component_of_CURRENTS"},"data":[0,0,0,0,0,0,0,0,0,0,0,0,0,0,0,0,0,0,0,0,0,0,0,0,0,0,0,0,0,0,0,0,0,0,0,0,0,0,0,0,0,0,0,0,0,0,0,0,0,0,0,0,0,0,0,0,0,0,-0.0647,-0.0648,0,-0.0711,-0.0712,-0.0713,-0.0749,-0.0749,-0.0749,-0.0749,-0.0828,-0.083,-0.0832,0,0,0,0,0,0,0,0,0,0,0,0,0,-0.0683,-0.0681,-0.0647,-0.0648,-0.0649,-0.0711,-0.0712,-0.0713,-0.0748,-0.0749,-0.0749,-0.0749,-0.0827,-0.083,-0.0832,0,0,0,0,0,0,0,0,0,0,0,0,0,-0.0698,-0.0681,-0.0647,-0.0675,-0.0679,-0.0711,-0.0712,-0.0713,-0.0748,-0.0749,-0.0749,-0.0749,-0.0827,-0.083,-0.0832,-0.0843,0,0,-0.0841,-0.0842,0,0,0,0,0,0,0,0,-0.0697,-0.0696,-0.067,-0.0673,-0.0677,-0.0723,-0.0754,-0.0758,-0.0748,-0.0721,-0.0749,-0.075,-0.0795,-0.08,-0.081,-0.0847,-0.085,-0.0841,-0.0843,-0.0844,-0.0845,0,0,0,0,0,0,0,-0.0695,-0.0694,-0.0672,-0.0671,-0.0675,-0.0728,-0.0729,-0.0755,-0.0755,-0.0723,-0.0726,-0.0735,-0.0797,-0.0807,-0.0812,-0.0852,-0.0841,-0.0844,-0.0845,-0.0847,-0.0923,-0.0923,0,0,0,0,0,0,-0.0682,-0.0692,-0.0669,-0.0674,-0.0689,-0.0727,-0.0728,-0.0707,-0.0754,-0.0762,-0.0735,-0.0736,-0.0802,-0.0809,-0.0815,-0.0877,-0.0844,-0.0847,-0.0849,-0.0922,-0.0923,-0.0923,0,0,0,0,0,0,-0.0682,-0.0678,-0.0667,-0.0688,-0.069,-0.0725,-0.0702,-0.0708,-0.0735,-0.0763,-0.0771,-0.0757,-0.0803,-0.0811,-0.0848,-0.0879,-0.0848,-0.0851,-0.0922,-0.0922,-0.0923,-0.0972,0,0,0,0,0,0,-0.0682,-0.0677,-0.0673,-0.0685,-0.0688,-0.0692,-0.0702,-0.0709,-0.074,-0.0743,-0.0785,-0.0791,-0.0803,-0.0843,-0.0851,-0.0882,-0.0853,-0.0921,-0.0922,-0.0923,-0.097,-0.0974,-0.0978,0,0,0,0,0,-0.0683,-0.0672,-0.0671,-0.067,-0.0674,-0.0693,-0.07,-0.0726,-0.0741,-0.0752,-0.078,-0.0791,-0.0852,-0.0846,-0.0855,-0.0888,-0.0921,-0.0922,-0.0923,-0.0969,-0.0974,-0.0978,0,0,0,0,0,0,-0.0715,-0.0675,-0.0674,-0.066,-0.0678,-0.07,-0.071,-0.0736,-0.0767,-0.0774,-0.08,-0.0809,-0.0853,-0.0856,-0.0849,-0.0907,-0.0886,-0.0889,-0.0918,-0.0923,-0.0927,-0.0957,-0.0855,0,0,0,0,0,-0.0711,-0.0667,-0.0674,-0.0665,-0.0665,-0.0691,-0.0708,-0.073,-0.0754,-0.077,-0.0801,-0.0828,-0.0859,-0.0879,-0.09,-0.0937,-0.0954,-0.0959,-0.0963,-0.0966,-0.0993,-0.0978,-0.0983,-0.0925,-0.0925,-0.0925,0,0,-0.073,-0.0695,-0.0682,-0.0666,-0.0672,-0.069,-0.0701,-0.0723,-0.0752,-0.0773,-0.0818,-0.0846,-0.087,-0.091,-0.0929,-0.0921,-0.1006,-0.0967,-0.097,-0.0996,-0.0979,-0.0985,-0.099,-0.0926,-0.0926,-0.0926,0,0,-0.0726,-0.0702,-0.0664,-0.0669,-0.0672,-0.0699,-0.0709,-0.074,-0.0759,-0.0807,-0.0829,-0.0876,-0.0918,-0.0948,-0.0966,-0.1002,-0.1024,-0.1006,-0.1059,-0.1043,-0.1048,-0.1052,-0.1147,-0.1159,-0.101,-0.101,-0.101,0,-0.0747,-0.0718,-0.0672,-0.0648,-0.067,-0.0703,-0.0722,-0.0744,-0.0794,-0.0814,-0.0823,-0.092,-0.0938,-0.1005,-0.1026,-0.1016,-0.1041,-0.1043,-0.1049,-0.1053,-0.1057,-0.1152,-0.1165,-0.1012,-0.1012,-0.1012,-0.1011,0,-0.0737,-0.072,-0.0705,-0.0678,-0.0683,-0.0719,-0.0734,-0.0767,-0.0808,-0.0841,-0.0914,-0.0959,-0.1019,-0.1034,-0.1052,-0.1102,-0.1129,-0.1054,-0.1041,-0.1066,-0.1165,-0.1178,-0.1016,-0.1015,-0.1014,-0.1013,0,0,-0.0773,-0.0712,-0.0717,-0.0717,-0.0718,-0.0737,-0.0755,-0.0805,-0.087,-0.0902,-0.0964,-0.1039,-0.108,-0.1106,-0.114,-0.1153,-0.1227,-0.1131,-0.1129,-0.1237,-0.1279,-0.1146,-0.1148,-0.1139,-0.1139,-0.114,-0.1363,0,-0.0803,-0.0786,-0.0745,-0.0779,-0.0785,-0.0793,-0.0798,-0.0829,-0.0917,-0.098,-0.1006,-0.1099,-0.1098,-0.1175,-0.1171,-0.12,-0.1252,-0.118,-0.1231,-0.1236,-0.1118,-0.1152,-0.1142,-0.1372,-0.1375,-0.1377,-0.1379,0,-0.082,-0.0811,-0.0832,-0.0817,-0.0819,-0.086,-0.0942,-0.0958,-0.1011,-0.1072,-0.1156,-0.1185,-0.1251,-0.1225,-0.1302,-0.1254,-0.1291,-0.1313,-0.1318,-0.1182,-0.112,-0.1324,-0.1401,-0.14,-0.1398,-0.1396,-0.1395,0,-0.088,-0.0878,-0.0912,-0.0916,-0.0897,-0.0928,-0.0956,-0.101,-0.104,-0.1185,-0.1258,-0.1304,-0.1373,-0.1364,-0.1399,-0.1359,-0.1465,-0.1394,-0.1341,-0.1338,-0.1374,-0.1365,-0.1459,-0.1459,-0.1458,-0.1458,-0.1457,0,-0.0918,-0.0945,-0.0969,-0.0988,-0.1026,-0.0996,-0.1089,-0.1133,-0.1203,-0.1258,-0.1332,-0.1416,-0.1404,-0.1435,-0.1432,-0.1428,-0.1488,-0.1384,-0.1362,-0.14,-0.1391,-0.1388,-0.1377,-0.1466,-0.1464,-0.1462,-0.1461,0,-0.0924,-0.0947,-0.0978,-0.102,-0.1036,-0.107,-0.1125,-0.1195,-0.1301,-0.1393,-0.1429,-0.1508,-0.1556,-0.1555,-0.1588,-0.1503,-0.1498,-0.1497,-0.1638,-0.1617,-0.1401,-0.139,-0.1463,-0.146,-0.1457,-0.1455,-0.1453,0,-0.0908,-0.0929,-0.0999,-0.1025,-0.1059,-0.1124,-0.1136,-0.1224,-0.1314,-0.1446,-0.1468,-0.1563,-0.1597,-0.1563,-0.1552,-0.1548,-0.1509,-0.1546,-0.1387,-0.1418,-0.1392,-0.1385,-0.1378,-0.1448,-0.1447,-0.1447,-0.1446,0,-0.0868,-0.0916,-0.0946,-0.1008,-0.1068,-0.1104,-0.1185,-0.1232,-0.1325,-0.1441,-0.1488,-0.1483,-0.1534,-0.1495,-0.1513,-0.1491,-0.1509,-0.1515,-0.152,-0.1371,-0.1401,-0.1375,-0.1372,-0.1436,-0.1437,-0.1438,-0.1439,0,-0.0832,-0.0865,-0.0923,-0.0964,-0.1027,-0.1066,-0.1115,-0.1187,-0.1234,-0.1382,-0.1396,-0.1467,-0.1535,-0.1475,-0.1475,-0.1435,-0.1391,-0.133,-0.1344,-0.1355,-0.1192,-0.1206,-0.1185,0,0,0,0,0,-0.0776,-0.082,-0.0866,-0.0914,-0.0978,-0.1002,-0.111,-0.1167,-0.1288,-0.1283,-0.133,-0.1358,-0.1338,-0.1368,-0.1296,-0.141,-0.1395,-0.132,-0.1333,-0.1381,-0.1392,-0.1197,0,0,0,0,0,0,-0.0748,-0.0802,-0.0844,-0.0855,-0.087,-0.0925,-0.0984,-0.1061,-0.1072,-0.1191,-0.1183,-0.126,-0.1256,-0.1345,-0.126,-0.1267,-0.1244,-0.1357,-0.1353,-0.1374,-0.1385,-0.1394,-0.1197,0,0,0,0,0]},{"header":{"parameterUnit":"m.s-1","parameterCategory":2,"la1":30.2991,"la2":30.254,"lo1":-89.0895,"lo2":-89.0444,"dy":0.0017,"dx":0.0017,"nx":28,"ny":28,"refTime":"2023-09-04T03:00:00:Z","depth":"4","parameterNumber":3,"parameterNumberName":"V-component_of_CURRENTS"},"data":[0,0,0,0,0,0,0,0,0,0,0,0,0,0,0,0,0,0,0,0,0,0,0,0,0,0,0,0,0,0,0,0,0,0,0,0,0,0,0,0,0,0,0,0,0,0,0,0,0,0,0,0,0,0,0,0,0,0,-0.0309,-0.0309,0,-0.0317,-0.0317,-0.0317,-0.0322,-0.0322,-0.0322,-0.0322,-0.0303,-0.0303,-0.0302,0,0,0,0,0,0,0,0,0,0,0,0,0,-0.0257,-0.0258,-0.0309,-0.0309,-0.0309,-0.0317,-0.0317,-0.0317,-0.0322,-0.0322,-0.0322,-0.0322,-0.0303,-0.0303,-0.0302,0,0,0,0,0,0,0,0,0,0,0,0,0,-0.0274,-0.0259,-0.0309,-0.0313,-0.0313,-0.0317,-0.0317,-0.0317,-0.0322,-0.0322,-0.0322,-0.0322,-0.0304,-0.0303,-0.0302,-0.0296,0,0,-0.03,-0.0299,0,0,0,0,0,0,0,0,-0.0273,-0.0276,-0.0312,-0.0313,-0.0313,-0.0319,-0.0292,-0.0309,-0.0322,-0.0319,-0.0322,-0.0322,-0.0306,-0.0305,-0.0307,-0.0295,-0.0294,-0.03,-0.0299,-0.0299,-0.0298,0,0,0,0,0,0,0,-0.0272,-0.0275,-0.0312,-0.0312,-0.0313,-0.03,-0.0303,-0.0295,-0.0311,-0.0319,-0.0319,-0.032,-0.0306,-0.0307,-0.0306,-0.0294,-0.03,-0.0299,-0.0298,-0.0298,-0.0283,-0.0284,0,0,0,0,0,0,-0.0273,-0.0274,-0.0312,-0.0312,-0.0293,-0.0301,-0.0304,-0.0317,-0.0312,-0.0312,-0.032,-0.0321,-0.0309,-0.0307,-0.0305,-0.0314,-0.0299,-0.0298,-0.0297,-0.0283,-0.0283,-0.0284,0,0,0,0,0,0,-0.0273,-0.0277,-0.0311,-0.0293,-0.0296,-0.0302,-0.0316,-0.0317,-0.0324,-0.0313,-0.0312,-0.0327,-0.0309,-0.0307,-0.0307,-0.0313,-0.0298,-0.0297,-0.0283,-0.0283,-0.0284,-0.0321,0,0,0,0,0,0,-0.0271,-0.0277,-0.0289,-0.0293,-0.0297,-0.0323,-0.0316,-0.0317,-0.0324,-0.0324,-0.0318,-0.0316,-0.0309,-0.0308,-0.0306,-0.0312,-0.0296,-0.0283,-0.0283,-0.0283,-0.032,-0.0323,-0.0325,0,0,0,0,0,-0.0269,-0.0286,-0.029,-0.0294,-0.0313,-0.0323,-0.0325,-0.0328,-0.0324,-0.0333,-0.0327,-0.0317,-0.0307,-0.0308,-0.0305,-0.0311,-0.0283,-0.0283,-0.0283,-0.0319,-0.0322,-0.0325,0,0,0,0,0,0,-0.0264,-0.0288,-0.0292,-0.0314,-0.0322,-0.0325,-0.033,-0.0331,-0.0334,-0.0333,-0.0321,-0.0319,-0.0322,-0.0309,-0.0309,-0.0306,-0.0292,-0.0292,-0.032,-0.0323,-0.0325,-0.0327,-0.0295,0,0,0,0,0,-0.027,-0.0294,-0.0305,-0.0322,-0.0326,-0.0328,-0.0332,-0.0336,-0.0337,-0.0339,-0.0335,-0.0326,-0.0319,-0.0316,-0.031,-0.0309,-0.0262,-0.0309,-0.0311,-0.0314,-0.0312,-0.0257,-0.0254,-0.0284,-0.0284,-0.0284,0,0,-0.0269,-0.0287,-0.0298,-0.0323,-0.0326,-0.0344,-0.0331,-0.0342,-0.0358,-0.0335,-0.0353,-0.0338,-0.0321,-0.0323,-0.0322,-0.0314,-0.0275,-0.0314,-0.0316,-0.0313,-0.0257,-0.0254,-0.0251,-0.0285,-0.0284,-0.0284,0,0,-0.0282,-0.0297,-0.0322,-0.0336,-0.0351,-0.0355,-0.036,-0.0369,-0.0374,-0.0385,-0.037,-0.0358,-0.0356,-0.0342,-0.0334,-0.0344,-0.0292,-0.0343,-0.0356,-0.0303,-0.03,-0.0297,-0.0207,-0.0196,-0.0342,-0.0342,-0.0342,0,-0.0283,-0.0318,-0.0327,-0.0354,-0.0372,-0.0363,-0.0391,-0.0392,-0.0401,-0.0404,-0.0397,-0.0375,-0.0363,-0.0351,-0.0357,-0.035,-0.0298,-0.0348,-0.0306,-0.0302,-0.0298,-0.0207,-0.0194,-0.0344,-0.0344,-0.0344,-0.0344,0,-0.0309,-0.0345,-0.0357,-0.0397,-0.0415,-0.0434,-0.0443,-0.0447,-0.0447,-0.0451,-0.0442,-0.0414,-0.0398,-0.039,-0.038,-0.0349,-0.0312,-0.0317,-0.0298,-0.0297,-0.0201,-0.0187,-0.0347,-0.0346,-0.0346,-0.0345,0,0,-0.0309,-0.0366,-0.0375,-0.0406,-0.0443,-0.0459,-0.0478,-0.0495,-0.0488,-0.0492,-0.0483,-0.0469,-0.0444,-0.0431,-0.0402,-0.0356,-0.0277,-0.0328,-0.0324,-0.0239,-0.0125,-0.0143,-0.0128,-0.0275,-0.0274,-0.0272,-0.0059,0,-0.0331,-0.0393,-0.0418,-0.0476,-0.051,-0.0516,-0.0532,-0.0545,-0.0531,-0.0515,-0.0487,-0.0463,-0.0463,-0.043,-0.0396,-0.0308,-0.0246,-0.0332,-0.0139,-0.0132,-0.0149,-0.0115,-0.0267,-0.0049,-0.0045,-0.0043,-0.0041,0,-0.036,-0.0402,-0.0465,-0.0523,-0.0535,-0.0564,-0.0574,-0.0581,-0.0557,-0.0542,-0.0516,-0.0481,-0.0423,-0.0411,-0.0267,-0.0321,-0.0229,-0.0155,-0.0146,-0.0143,-0.0126,-0.0055,-0.0014,-0.0016,-0.0018,-0.002,-0.0022,0,-0.0371,-0.044,-0.0494,-0.0517,-0.057,-0.0591,-0.0603,-0.0594,-0.0585,-0.0539,-0.0506,-0.0456,-0.0388,-0.0301,-0.018,-0.0207,-0.0001,-0.0015,0.0065,0.0068,0.0037,0.0031,0.0102,0.0101,0.0101,0.01,0.01,0,-0.0405,-0.0449,-0.0501,-0.0536,-0.0578,-0.0607,-0.0619,-0.061,-0.058,-0.0555,-0.0513,-0.0454,-0.0356,-0.0242,-0.0153,0.0,0.0024,0.008,0.0115,0.0021,0.001,0.005,0.0041,0.0108,0.0107,0.0105,0.0104,0,-0.043,-0.0462,-0.0523,-0.0579,-0.0593,-0.0622,-0.0638,-0.0627,-0.0589,-0.0539,-0.0518,-0.0423,-0.0276,-0.0165,0.0019,0.006,0.0196,0.0249,0.0175,0.02,0.0233,0.022,0.0374,0.0375,0.0376,0.0376,0.0377,0,-0.0451,-0.0486,-0.055,-0.0577,-0.0611,-0.0642,-0.0653,-0.0639,-0.0617,-0.0516,-0.0486,-0.0336,-0.0266,-0.0007,0.0085,0.0273,0.0276,0.0361,0.0256,0.024,0.0259,0.0245,0.0231,0.0378,0.0378,0.0379,0.0379,0,-0.0492,-0.051,-0.056,-0.061,-0.0642,-0.066,-0.0669,-0.0648,-0.06,-0.0561,-0.0428,-0.0305,-0.0135,0.0008,0.0159,0.0276,0.0301,0.037,0.0369,0.0271,0.0247,0.0262,0.0248,0.0382,0.0381,0.0381,0.0381,0,-0.0509,-0.0551,-0.0604,-0.0645,-0.0676,-0.0674,-0.0672,-0.0628,-0.0594,-0.0479,-0.0431,-0.0263,-0.0162,0.0016,0.0144,0.0258,0.0271,0.0287,0.029,0.0288,0.0161,0.0112,0.0253,0,0,0,0,0,-0.0524,-0.0579,-0.063,-0.0673,-0.0693,-0.0705,-0.0683,-0.0665,-0.0604,-0.0509,-0.0468,-0.0315,-0.0105,-0.0014,0.0101,0.0134,0.0271,0.0269,0.0285,0.0398,0.0395,0.0253,0,0,0,0,0,0,-0.0541,-0.0607,-0.0642,-0.0679,-0.07,-0.0715,-0.0697,-0.0652,-0.059,-0.0513,-0.0399,-0.0314,-0.0115,-0.0178,0.0092,0.0128,0.0149,0.0373,0.0375,0.04,0.0397,0.0394,0.0247,0,0,0,0,0]}]]